Location: Laas
(43.4693°N, 0.3073°E)
Time: 15:12:58
(UTC+00:00)

GEOS 3 Rocket - Pass Details

Date: 25 October 2020
Orbit: 770 x 850 km, 115.0° (Epoch: 23 November)

Event Time Altitude Azimuth Distance (km) Brightness Sun altitude
Exits shadow 18:12:44 18° 108° (ESE) 1,956 5.0 -13.9°
Maximum altitude 18:16:25 44° 44° (NE) 1,153 4.1 -14.6°
Drops below altitude 10° 18:21:29 10° 334° (NNW) 2,475 6.4 -15.5°
Sets 18:23:55 0° 328° (NNW) 3,418 7.3 -16.0°
